| time (UTC) | temp C | wind direction | speed KPH | gust KPH | rain 1hr cm | rain 24hr cm | rain mn cm | humidity % | barometer mb |
| 20260508141555 | 24 | 208 | 3.2 | 20.9 | 0.00 | 0.00 | 0.00 | 41 | 1010.6 |
| 20260508140049 | 24 | 236 | 3.2 | 20.9 | 0.00 | 0.00 | 0.00 | 41 | 1010.9 |
| 20260508134545 | 24 | 283 | 0.0 | 8.0 | 0.00 | 0.00 | 0.00 | 41 | 1010.9 |
| 20260508133044 | 23 | 262 | 0.0 | 11.3 | 0.00 | 0.00 | 0.00 | 42 | 1011.1 |
| 20260508131536 | 23 | 321 | 1.6 | 12.9 | 0.00 | 0.00 | 0.00 | 42 | 1011.2 |
| 20260508130115 | 23 | 256 | 3.2 | 11.3 | 0.00 | 0.00 | 0.00 | 42 | 1011.4 |
| 20260508124616 | 23 | 232 | 0.0 | 9.7 | 0.00 | 0.00 | 0.00 | 42 | 1011.5 |
| 20260508123114 | 23 | 246 | 0.0 | 11.3 | 0.00 | 0.00 | 0.00 | 43 | 1011.7 |
| 20260508121613 | 22 | 246 | 4.8 | 19.3 | 0.00 | 0.00 | 0.00 | 44 | 1011.9 |
| 20260508120107 | 22 | 236 | 1.6 | 11.3 | 0.00 | 0.00 | 0.00 | 44 | 1012.0 |
| 20260508114605 | 21 | 240 | 3.2 | 16.1 | 0.00 | 0.00 | 0.00 | 47 | 1012.2 |
| 20260508113059 | 21 | 218 | 0.0 | 11.3 | 0.00 | 0.00 | 0.00 | 48 | 1012.3 |
| 20260508111552 | 21 | 203 | 4.8 | 12.9 | 0.00 | 0.00 | 0.00 | 49 | 1012.4 |
| 20260508110054 | 21 | 188 | 1.6 | 12.9 | 0.00 | 0.00 | 0.00 | 52 | 1012.4 |
| 20260508104509 | 20 | 232 | 4.8 | 12.9 | 0.00 | 0.00 | 0.00 | 53 | 1012.6 |
| 20260508103003 | 21 | 30 | 1.6 | 12.9 | 0.00 | 0.00 | 0.00 | 52 | 1012.6 |
| 20260508101523 | 20 | 163 | 3.2 | 16.1 | 0.00 | 0.00 | 0.00 | 55 | 1012.9 |
| 20260508100007 | 20 | 255 | 6.4 | 20.9 | 0.00 | 0.00 | 0.00 | 56 | 1013.1 |
| 20260508094505 | 20 | 213 | 8.0 | 19.3 | 0.00 | 0.00 | 0.00 | 56 | 1013.2 |
| 20260508093117 | 19 | 238 | 4.8 | 24.1 | 0.00 | 0.00 | 0.00 | 56 | 1013.3 |
| 20260508091615 | 18 | 221 | 3.2 | 16.1 | 0.00 | 0.00 | 0.00 | 57 | 1013.2 |
| 20260508090113 | 18 | 210 | 6.4 | 12.9 | 0.00 | 0.00 | 0.00 | 59 | 1013.2 |
| 20260508084547 | 18 | 246 | 3.2 | 11.3 | 0.00 | 0.00 | 0.00 | 61 | 1013.1 |
| 20260508083020 | 18 | 218 | 3.2 | 8.0 | 0.00 | 0.00 | 0.00 | 64 | 1013.2 |
| 20260508081511 | 17 | 246 | 4.8 | 16.1 | 0.00 | 0.00 | 0.00 | 67 | 1013.1 |
| 20260508080005 | 17 | 238 | 1.6 | 6.4 | 0.00 | 0.00 | 0.00 | 70 | 1013.1 |
| 20260508074513 | 17 | 208 | 0.0 | 4.8 | 0.00 | 0.00 | 0.00 | 71 | 1013.1 |
| 20260508073112 | 16 | 204 | 0.0 | 3.2 | 0.00 | 0.00 | 0.00 | 73 | 1013.1 |
| 20260508071617 | 16 | 203 | 0.0 | 3.2 | 0.00 | 0.00 | 0.00 | 77 | 1013.1 |
| 20260508070113 | 15 | 203 | 0.0 | 4.8 | 0.00 | 0.00 | 0.00 | 79 | 1013.0 |
| 20260508064613 | 15 | 208 | 0.0 | 6.4 | 0.00 | 0.00 | 0.00 | 79 | 1013.0 |
| 20260508063104 | 15 | 226 | 0.0 | 1.6 | 0.00 | 0.00 | 0.00 | 78 | 1012.8 |
| 20260508061609 | 15 | 188 | 0.0 | 1.6 | 0.00 | 0.00 | 0.00 | 79 | 1012.7 |
| 20260508060056 | 15 | 217 | 0.0 | 1.6 | 0.00 | 0.00 | 0.00 | 79 | 1012.5 |
| 20260508054635 | 15 | 236 | 0.0 | 3.2 | 0.00 | 0.00 | 0.00 | 79 | 1012.2 |
| 20260508053049 | 14 | 236 | 0.0 | 4.8 | 0.00 | 0.00 | 0.00 | 80 | 1012.1 |
| 20260508051547 | 14 | 247 | 0.0 | 1.6 | 0.00 | 0.00 | 0.00 | 80 | 1011.9 |
| 20260508050042 | 14 | 225 | 0.0 | 3.2 | 0.00 | 0.00 | 0.00 | 81 | 1011.4 |
| 20260508044514 | 14 | 238 | 0.0 | 3.2 | 0.00 | 0.00 | 0.00 | 82 | 1011.4 |
| 20260508043002 | 14 | 229 | 0.0 | 1.6 | 0.00 | 0.00 | 0.00 | 83 | 1011.5 |
| 20260508041617 | 14 | 200 | 0.0 | 3.2 | 0.00 | 0.00 | 0.00 | 82 | 1011.3 |
| 20260508040109 | 14 | 222 | 0.0 | 1.6 | 0.00 | 0.00 | 0.00 | 83 | 1011.5 |
| 20260508034606 | 14 | 195 | 0.0 | 3.2 | 0.00 | 0.00 | 0.00 | 82 | 1011.7 |
| 20260508033105 | 14 | 205 | 0.0 | 3.2 | 0.00 | 0.00 | 0.00 | 82 | 1011.8 |
| 20260508031605 | 14 | 198 | 0.0 | 4.8 | 0.00 | 0.00 | 0.00 | 81 | 1011.9 |
| 20260508030109 | 14 | 212 | 0.0 | 4.8 | 0.00 | 0.00 | 0.00 | 80 | 1012.0 |
| 20260508024549 | 15 | 217 | 0.0 | 3.2 | 0.00 | 0.00 | 0.00 | 80 | 1011.9 |
| 20260508023046 | 15 | 238 | 0.0 | 4.8 | 0.00 | 0.00 | 0.00 | 80 | 1011.9 |
| 20260508021543 | 15 | 212 | 0.0 | 6.4 | 0.00 | 0.00 | 0.00 | 80 | 1012.0 |
| 20260508020039 | 15 | 228 | 1.6 | 6.4 | 0.00 | 0.00 | 0.00 | 79 | 1012.0 |
| 20260508014539 | 15 | 210 | 0.0 | 4.8 | 0.00 | 0.00 | 0.00 | 78 | 1012.0 |
| 20260508013032 | 15 | 215 | 0.0 | 1.6 | 0.00 | 0.00 | 0.00 | 77 | 1012.2 |
| 20260508011533 | 15 | 207 | 0.0 | 1.6 | 0.00 | 0.00 | 0.00 | 76 | 1012.3 |
| 20260508010002 | 15 | 207 | 0.0 | 1.6 | 0.00 | 0.00 | 0.00 | 76 | 1012.4 |
| 20260508004506 | 15 | 210 | 0.0 | 3.2 | 0.00 | 0.00 | 0.00 | 76 | 1012.3 |
| 20260508003001 | 15 | 215 | 0.0 | 3.2 | 0.00 | 0.00 | 0.00 | 75 | 1012.3 |
| 20260508001619 | 15 | 214 | 0.0 | 1.6 | 0.00 | 0.00 | 0.00 | 75 | 1012.2 |
| 20260508000112 | 15 | 230 | 0.0 | 3.2 | 0.00 | 0.00 | 0.00 | 74 | 1012.4 |
| 20260507234611 | 15 | 218 | 0.0 | 3.2 | 0.00 | 0.00 | 0.00 | 75 | 1012.4 |
| 20260507233115 | 15 | 229 | 0.0 | 3.2 | 0.00 | 0.00 | 0.00 | 75 | 1012.3 |
| 20260507231609 | 15 | 217 | 0.0 | 4.8 | 0.00 | 0.00 | 0.00 | 75 | 1012.7 |
| 20260507224606 | 16 | 248 | 1.6 | 8.0 | 0.00 | 0.00 | 0.00 | 74 | 1012.9 |
| 20260507223100 | 16 | 219 | 0.0 | 4.8 | 0.00 | 0.00 | 0.00 | 73 | 1013.0 |
| 20260507221551 | 16 | 246 | 0.0 | 1.6 | 0.00 | 0.00 | 0.00 | 72 | 1013.1 |
| 20260507220049 | 16 | 238 | 0.0 | 8.0 | 0.00 | 0.00 | 0.00 | 71 | 1013.2 |
| 20260507214541 | 16 | 229 | 1.6 | 6.4 | 0.00 | 0.00 | 0.00 | 71 | 1013.2 |
| 20260507213037 | 16 | 239 | 0.0 | 4.8 | 0.00 | 0.00 | 0.00 | 69 | 1013.1 |
| 20260507211534 | 16 | 231 | 0.0 | 1.6 | 0.00 | 0.00 | 0.00 | 69 | 1012.9 |
| 20260507210006 | 16 | 230 | 0.0 | 1.6 | 0.00 | 0.00 | 0.00 | 68 | 1012.8 |
| 20260507204529 | 17 | 231 | 0.0 | 3.2 | 0.00 | 0.00 | 0.00 | 67 | 1012.5 |
| 20260507203030 | 17 | 249 | 0.0 | 4.8 | 0.00 | 0.00 | 0.00 | 65 | 1012.3 |
| 20260507201503 | 17 | 246 | 0.0 | 1.6 | 0.00 | 0.00 | 0.00 | 61 | 1012.3 |
| 20260507200113 | 18 | 207 | 0.0 | 4.8 | 0.00 | 0.00 | 0.00 | 59 | 1012.2 |
| 20260507194614 | 18 | 232 | 0.0 | 4.8 | 0.00 | 0.00 | 0.00 | 57 | 1012.0 |
| 20260507193133 | 18 | 219 | 0.0 | 11.3 | 0.00 | 0.00 | 0.00 | 56 | 1011.9 |
| 20260507191610 | 18 | 248 | 1.6 | 8.0 | 0.00 | 0.00 | 0.00 | 55 | 1011.7 |
| 20260507190100 | 19 | 259 | 1.6 | 14.5 | 0.00 | 0.00 | 0.00 | 53 | 1011.4 |
| 20260507184559 | 20 | 242 | 3.2 | 17.7 | 0.00 | 0.00 | 0.00 | 51 | 1011.1 |
| 20260507183102 | 20 | 232 | 1.6 | 12.9 | 0.00 | 0.00 | 0.00 | 50 | 1010.8 |
| 20260507181600 | 20 | 243 | 3.2 | 17.7 | 0.00 | 0.00 | 0.00 | 49 | 1010.8 |
| 20260507180059 | 21 | 96 | 1.6 | 14.5 | 0.00 | 0.00 | 0.00 | 47 | 1010.6 |
| 20260507174557 | 21 | 246 | 4.8 | 22.5 | 0.00 | 0.00 | 0.00 | 46 | 1010.5 |
| 20260507173120 | 21 | 221 | 4.8 | 16.1 | 0.00 | 0.00 | 0.00 | 46 | 1010.3 |
| 20260507171549 | 21 | 259 | 3.2 | 14.5 | 0.00 | 0.00 | 0.00 | 45 | 1010.1 |
| 20260507170010 | 22 | 259 | 4.8 | 22.5 | 0.00 | 0.00 | 0.00 | 45 | 1010.0 |
| 20260507164507 | 22 | 228 | 3.2 | 20.9 | 0.00 | 0.00 | 0.00 | 44 | 1009.9 |
| 20260507163117 | 22 | 13 | 3.2 | 20.9 | 0.00 | 0.00 | 0.00 | 43 | 1010.0 |
| 20260507161618 | 22 | 217 | 3.2 | 19.3 | 0.00 | 0.00 | 0.00 | 44 | 1010.0 |
| 20260507160120 | 22 | 249 | 8.0 | 17.7 | 0.00 | 0.00 | 0.00 | 43 | 1010.0 |
| 20260507154507 | 22 | 233 | 4.8 | 25.7 | 0.00 | 0.00 | 0.00 | 44 | 1009.9 |
| 20260507153014 | 22 | 287 | 8.0 | 25.7 | 0.00 | 0.00 | 0.00 | 45 | 1009.9 |
| 20260507151618 | 22 | 283 | 4.8 | 19.3 | 0.00 | 0.00 | 0.00 | 45 | 1010.0 |
| 20260507150114 | 22 | 280 | 6.4 | 22.5 | 0.00 | 0.00 | 0.00 | 45 | 1010.1 |
| 20260507144614 | 22 | 303 | 3.2 | 25.7 | 0.00 | 0.00 | 0.00 | 46 | 1010.2 |
| 20260507143008 | 22 | 230 | 3.2 | 17.7 | 0.00 | 0.00 | 0.00 | 47 | 1010.3 |